Zurück zum Katalog

STARLINK-36390

AktivKommunikationSSO
NORAD 67886·PAYLOAD·🇺🇸 United States

Gestartet Feb 21, 2026 von Vandenberg Space Force Base

Loading…

Nächste Überflüge (nächste 24 Stunden)

TLE

AktuellSource: CelesTrak SupGP

Epoche: Sep 14, 2026, 21:39 UTC

1 67886C 26035H   26257.90256944 -.00051766  00000+0 -16071-2 0  2572
2 67886  97.2844 189.7718 0001803  94.4071 181.6803 15.33461061    17

Verfolge STARLINK-36390 in Echtzeit mit AllMySat

Download on the App Store